Terminal Aerodrome Forecast
Issued by NWS

Home | Current Version | Previous Version | Graphics & Text | Print | Product List | Glossary On
Versions: 1 2 3 4 5 6 7 8 9 10 11 12 13 14 15 16 17 18 19 20
000
FTUS42 KMHX 010116 AAB
TAFPGV
TAF AMD
KPGV 010116Z 0101/0124 23010G15KT P6SM SKC
     FM010300 25005KT P6SM SKC
     FM010500 30005KT P6SM SKC
     FM011200 02010KT P6SM SKC
      AMD LTD TO CLD VIS AND WIND=

USA.gov is the U.S. government's official web portal to all federal, state and local government web resources and services.